| time (UTC) | temp C | wind direction | speed KPH | gust KPH | rain 1hr cm | rain 24hr cm | rain mn cm | humidity % | barometer mb |
| 20260507052151 | 7 | 337 | 1.6 | 6.4 | 0.00 | 0.89 | 0.00 | 97 | 1015.3 |
| 20260507051204 | 7 | 337 | 1.6 | 6.4 | 0.00 | 0.89 | 0.00 | 97 | 1015.2 |
| 20260507050137 | 7 | 337 | 1.6 | 6.4 | 0.00 | 0.89 | 0.00 | 97 | 1015.1 |
| 20260507045122 | 7 | 337 | 1.6 | 6.4 | 0.00 | 0.91 | 0.00 | 96 | 1014.8 |
| 20260507044119 | 7 | 337 | 1.6 | 4.8 | 0.00 | 0.94 | 0.00 | 96 | 1014.8 |
| 20260507043144 | 7 | 337 | 0.0 | 4.8 | 0.00 | 0.97 | 0.00 | 96 | 1014.7 |
| 20260507042204 | 7 | 337 | 0.0 | 4.8 | 0.00 | 1.04 | 0.00 | 96 | 1014.6 |
| 20260507041225 | 7 | 337 | 0.0 | 4.8 | 0.00 | 1.07 | 0.00 | 96 | 1014.5 |
| 20260507040239 | 7 | 315 | 0.0 | 4.8 | 0.00 | 1.07 | 0.00 | 96 | 1014.7 |
| 20260507035228 | 7 | 337 | 0.0 | 1.6 | 0.00 | 1.12 | 0.00 | 96 | 1014.4 |
| 20260507033113 | 7 | 315 | 0.0 | 0.0 | 0.00 | 1.22 | 0.00 | 95 | 1014.2 |
| 20260507030954 | 7 | 315 | 0.0 | 1.6 | 0.00 | 1.24 | 0.00 | 95 | 1014.2 |
| 20260507025939 | 7 | 315 | 0.0 | 0.0 | 0.00 | 1.27 | 0.00 | 94 | 1014.1 |
| 20260507025004 | 7 | 315 | 0.0 | 0.0 | 0.00 | 1.35 | 0.00 | 95 | 1014.1 |
| 20260507023957 | 7 | 315 | 0.0 | 0.0 | 0.00 | 1.37 | 0.00 | 95 | 1014.1 |
| 20260507022949 | 7 | 315 | 0.0 | 0.0 | 0.00 | 1.40 | 0.00 | 94 | 1014.2 |
| 20260507022011 | 7 | 315 | 0.0 | 0.0 | 0.00 | 1.42 | 0.00 | 95 | 1014.2 |
| 20260507020947 | 7 | 315 | 0.0 | 0.0 | 0.00 | 1.50 | 0.00 | 95 | 1014.0 |
| 20260507020011 | 7 | 315 | 0.0 | 0.0 | 0.00 | 1.52 | 0.00 | 95 | 1013.9 |
| 20260507013858 | 7 | 315 | 0.0 | 0.0 | 0.00 | 1.57 | 0.00 | 96 | 1013.7 |
| 20260507012909 | 7 | 315 | 0.0 | 0.0 | 0.00 | 1.68 | 0.00 | 96 | 1013.6 |
| 20260507011910 | 7 | 315 | 0.0 | 0.0 | 0.00 | 1.73 | 0.00 | 96 | 1013.5 |
| 20260507010909 | 7 | 292 | 0.0 | 0.0 | 0.00 | 1.73 | 0.00 | 96 | 1013.5 |
| 20260507005900 | 7 | 315 | 0.0 | 0.0 | 0.00 | 1.78 | 0.00 | 96 | 1013.5 |
| 20260507004841 | 7 | 315 | 0.0 | 0.0 | 0.00 | 1.85 | 0.00 | 97 | 1013.6 |
| 20260507003830 | 7 | 292 | 1.6 | 4.8 | 0.00 | 1.88 | 0.00 | 97 | 1013.5 |
| 20260507002838 | 7 | 315 | 0.0 | 1.6 | 0.00 | 1.91 | 0.00 | 97 | 1013.5 |
| 20260507000745 | 7 | 315 | 0.0 | 1.6 | 0.00 | 2.03 | 0.00 | 98 | 1013.3 |
| 20260506234628 | 7 | 292 | 0.0 | 1.6 | 0.00 | 2.08 | 0.00 | 98 | 1013.5 |
| 20260506233654 | 7 | 315 | 1.6 | 1.6 | 0.00 | 2.16 | 0.00 | 98 | 1013.4 |
| 20260506232627 | 7 | 315 | 0.0 | 4.8 | 0.00 | 2.16 | 0.00 | 98 | 1013.1 |
| 20260506231639 | 7 | 315 | 1.6 | 4.8 | 0.00 | 2.18 | 0.00 | 98 | 1013.3 |
| 20260506230658 | 7 | 315 | 0.0 | 0.0 | 0.00 | 2.21 | 0.00 | 98 | 1013.2 |
| 20260506225659 | 7 | 315 | 1.6 | 4.8 | 0.00 | 2.24 | 0.00 | 98 | 1013.1 |
| 20260506224723 | 7 | 315 | 0.0 | 1.6 | 0.00 | 2.26 | 0.00 | 98 | 1013.0 |
| 20260506223700 | 7 | 315 | 0.0 | 1.6 | 0.00 | 2.29 | 0.00 | 98 | 1013.0 |
| 20260506222644 | 7 | 315 | 0.0 | 6.4 | 0.00 | 2.34 | 0.00 | 98 | 1012.9 |
| 20260506221654 | 7 | 315 | 0.0 | 1.6 | 0.00 | 2.39 | 0.00 | 98 | 1012.8 |
| 20260506220644 | 7 | 315 | 0.0 | 1.6 | 0.00 | 2.44 | 0.00 | 98 | 1012.8 |
| 20260506214521 | 7 | 315 | 0.0 | 1.6 | 0.00 | 2.57 | 2.49 | 98 | 1012.7 |
| 20260506213544 | 7 | 292 | 0.0 | 1.6 | 0.00 | 2.59 | 2.49 | 98 | 1012.4 |
| 20260506212600 | 7 | 315 | 0.0 | 1.6 | 0.00 | 2.67 | 2.49 | 99 | 1012.3 |
| 20260506211532 | 7 | 315 | 0.0 | 0.0 | 0.00 | 2.72 | 2.51 | 99 | 1012.6 |
| 20260506210528 | 7 | 315 | 0.0 | 1.6 | 0.00 | 2.77 | 2.49 | 98 | 1012.4 |
| 20260506205540 | 7 | 315 | 0.0 | 1.6 | 0.00 | 2.87 | 2.51 | 98 | 1012.5 |
| 20260506204522 | 7 | 315 | 0.0 | 0.0 | 0.00 | 2.92 | 2.49 | 99 | 1012.4 |
| 20260506203536 | 7 | 315 | 0.0 | 0.0 | 0.00 | 3.02 | 2.51 | 99 | 1012.4 |
| 20260506202507 | 7 | 315 | 0.0 | 1.6 | 0.00 | 3.05 | 2.51 | 99 | 1012.3 |
| 20260506201452 | 7 | 315 | 0.0 | 4.8 | 0.00 | 3.07 | 2.49 | 99 | 1012.2 |
| 20260506200449 | 7 | 292 | 0.0 | 6.4 | 0.00 | 3.10 | 2.49 | 99 | 1012.4 |
| 20260506195503 | 7 | 315 | 0.0 | 6.4 | 0.00 | 3.15 | 2.49 | 99 | 1012.2 |
| 20260506194459 | 7 | 315 | 0.0 | 4.8 | 0.00 | 3.20 | 2.49 | 99 | 1012.0 |
| 20260506193514 | 7 | 315 | 1.6 | 4.8 | 0.00 | 3.20 | 2.49 | 99 | 1012.0 |
| 20260506192500 | 7 | 315 | 0.0 | 0.0 | 0.00 | 3.20 | 2.49 | 99 | 1011.9 |
| 20260506191437 | 7 | 292 | 0.0 | 4.8 | 0.00 | 3.20 | 2.51 | 99 | 1011.7 |
| 20260506190407 | 7 | 315 | 0.0 | 8.0 | 0.00 | 3.20 | 2.51 | 99 | 1011.5 |
| 20260506185406 | 7 | 292 | 1.6 | 8.0 | 0.00 | 3.20 | 2.51 | 99 | 1011.5 |
| 20260506184410 | 7 | 315 | 0.0 | 4.8 | 0.00 | 3.20 | 2.49 | 99 | 1011.4 |
| 20260506183413 | 8 | 0 | 0.0 | 6.4 | 0.00 | 3.20 | 2.49 | 99 | 1011.3 |
| 20260506181202 | 8 | 337 | 0.0 | 4.8 | 0.00 | 3.20 | 2.49 | 99 | 1011.1 |
| 20260506175032 | 8 | 0 | 0.0 | 4.8 | 0.00 | 3.20 | 2.49 | 99 | 1010.7 |
| 20260506174027 | 8 | 67 | 0.0 | 4.8 | 0.00 | 3.20 | 2.49 | 99 | 1010.7 |
| 20260506171936 | 8 | 112 | 0.0 | 0.0 | 0.00 | 3.20 | 2.49 | 99 | 1010.6 |
| 20260506165843 | 8 | 315 | 1.6 | 4.8 | 0.03 | 3.20 | 2.49 | 99 | 1010.4 |
| 20260506163730 | 8 | 315 | 0.0 | 0.0 | 0.00 | 3.17 | 2.44 | 99 | 1010.4 |
| 20260506162754 | 8 | 0 | 0.0 | 8.0 | 0.00 | 3.17 | 2.44 | 99 | 1010.3 |
| 20260506161741 | 8 | 0 | 0.0 | 4.8 | 0.00 | 3.15 | 2.41 | 98 | 1010.4 |
| 20260506160709 | 8 | 337 | 1.6 | 4.8 | 0.00 | 3.15 | 2.41 | 98 | 1010.2 |
| 20260506155653 | 8 | 337 | 0.0 | 4.8 | 0.00 | 3.15 | 2.41 | 98 | 1010.3 |
| 20260506154631 | 8 | 315 | 0.0 | 4.8 | 0.00 | 3.15 | 2.41 | 98 | 1010.3 |
| 20260506153645 | 8 | 45 | 1.6 | 4.8 | 0.00 | 3.15 | 2.41 | 98 | 1010.2 |
| 20260506152621 | 8 | 270 | 0.0 | 4.8 | 0.00 | 3.15 | 2.41 | 98 | 1010.1 |
| 20260506151548 | 8 | 0 | 0.0 | 4.8 | 0.00 | 3.15 | 2.41 | 98 | 1010.2 |
| 20260506150540 | 8 | 337 | 0.0 | 4.8 | 0.00 | 3.15 | 2.44 | 98 | 1010.1 |
| 20260506145541 | 8 | 315 | 0.0 | 6.4 | 0.00 | 3.15 | 2.41 | 98 | 1009.7 |
| 20260506144528 | 8 | 337 | 0.0 | 6.4 | 0.00 | 3.15 | 2.41 | 98 | 1009.7 |
| 20260506143458 | 8 | 337 | 1.6 | 4.8 | 0.00 | 3.15 | 2.41 | 98 | 1009.7 |
| 20260506142428 | 8 | 292 | 0.0 | 4.8 | 0.00 | 3.15 | 2.41 | 98 | 1009.9 |
| 20260506140334 | 8 | 22 | 0.0 | 6.4 | 0.03 | 3.15 | 2.41 | 98 | 1009.9 |
| 20260506135351 | 8 | 45 | 0.0 | 1.6 | 0.00 | 3.10 | 2.39 | 98 | 1010.0 |
| 20260506134400 | 8 | 90 | 1.6 | 1.6 | 0.00 | 3.10 | 2.39 | 98 | 1009.8 |
| 20260506133340 | 8 | 22 | 0.0 | 8.0 | 0.00 | 3.10 | 2.39 | 98 | 1009.8 |
| 20260506132313 | 8 | 0 | 0.0 | 8.0 | 0.05 | 3.10 | 2.39 | 98 | 1009.7 |
| 20260506125111 | 8 | 0 | 0.0 | 1.6 | 0.25 | 3.05 | 2.34 | 98 | 1009.7 |
| 20260506124047 | 8 | 45 | 0.0 | 1.6 | 0.00 | 3.00 | 2.26 | 98 | 1009.6 |
| 20260506123051 | 8 | 67 | 0.0 | 4.8 | 0.00 | 2.95 | 2.24 | 99 | 1009.5 |
| 20260506122034 | 8 | 337 | 0.0 | 4.8 | 0.00 | 2.95 | 2.24 | 98 | 1009.4 |
| 20260506121020 | 8 | 337 | 0.0 | 4.8 | 0.00 | 2.95 | 2.24 | 99 | 1009.5 |
| 20260506114850 | 8 | 90 | 1.6 | 8.0 | 0.10 | 2.95 | 2.24 | 99 | 1009.3 |
| 20260506113830 | 8 | 337 | 0.0 | 1.6 | 0.03 | 2.92 | 2.21 | 99 | 1009.1 |
| 20260506111742 | 8 | 337 | 0.0 | 4.8 | 0.03 | 2.90 | 2.18 | 99 | 1009.1 |
| 20260506110807 | 8 | 45 | 0.0 | 4.8 | 0.08 | 2.90 | 2.18 | 99 | 1009.0 |
| 20260506105822 | 8 | 337 | 1.6 | 8.0 | 0.13 | 2.87 | 2.16 | 99 | 1008.8 |
| 20260506104836 | 8 | 337 | 4.8 | 8.0 | 0.15 | 2.87 | 2.16 | 99 | 1009.1 |
| 20260506103836 | 8 | 337 | 1.6 | 4.8 | 0.08 | 2.84 | 2.08 | 99 | 1009.0 |
| 20260506102828 | 8 | 337 | 0.0 | 4.8 | 0.08 | 2.82 | 2.06 | 99 | 1009.0 |
| 20260506100651 | 8 | 337 | 0.0 | 9.7 | 0.15 | 2.74 | 2.03 | 99 | 1008.7 |
| 20260506095710 | 8 | 315 | 0.0 | 8.0 | 0.18 | 2.72 | 1.96 | 99 | 1008.7 |
| 20260506094702 | 9 | 337 | 0.0 | 9.7 | 0.10 | 2.69 | 1.93 | 99 | 1008.3 |
| 20260506093654 | 9 | 337 | 1.6 | 9.7 | 0.10 | 2.67 | 1.91 | 99 | 1008.3 |
| 20260506092638 | 9 | 337 | 0.0 | 1.6 | 0.05 | 2.62 | 1.88 | 99 | 1008.2 |
| 20260506091645 | 9 | 0 | 0.0 | 8.0 | 0.00 | 2.59 | 1.85 | 99 | 1008.1 |
| 20260506090705 | 8 | 337 | 1.6 | 8.0 | 0.00 | 2.59 | 1.85 | 99 | 1008.2 |
| 20260506085720 | 9 | 337 | 1.6 | 4.8 | 0.00 | 2.57 | 1.85 | 99 | 1008.0 |
| 20260506084717 | 9 | 315 | 0.0 | 4.8 | 0.00 | 2.57 | 1.83 | 99 | 1008.2 |
| 20260506083737 | 9 | 337 | 0.0 | 1.6 | 0.00 | 2.57 | 1.83 | 99 | 1007.9 |
| 20260506082719 | 9 | 45 | 0.0 | 4.8 | 0.00 | 2.57 | 1.83 | 99 | 1007.9 |
| 20260506081649 | 9 | 45 | 1.6 | 4.8 | 0.00 | 2.57 | 1.83 | 99 | 1007.8 |
| 20260506080617 | 9 | 315 | 0.0 | 4.8 | 0.00 | 2.57 | 1.85 | 99 | 1007.9 |
| 20260506073525 | 9 | 315 | 0.0 | 1.6 | 0.03 | 2.54 | 1.78 | 99 | 1007.9 |
| 20260506072518 | 9 | 315 | 0.0 | 4.8 | 0.08 | 2.54 | 1.78 | 99 | 1007.8 |
| 20260506071510 | 9 | 337 | 0.0 | 1.6 | 0.03 | 2.51 | 1.75 | 99 | 1007.9 |
| 20260506070528 | 9 | 337 | 0.0 | 4.8 | 0.05 | 2.51 | 1.75 | 99 | 1007.8 |
| 20260506060419 | 9 | 337 | 0.0 | 0.0 | 0.05 | 2.41 | 1.68 | 99 | 1007.6 |